Regional Weather Roundup
Issued by NWS

Home | Current Version | Previous Version | Text Only | Print | Product List | Glossary Off
Versions: 1 2 3 4 5 6 7 8 9 10 11 12 13 14 15 16 17 18 19 20 21 22 23 24 25 26 27 28 29 30 31 32 33 34 35 36 37 38 39 40 41 42 43 44 45 46 47 48 49 50

000
ASUS43 KMPX 230010
RWRMN
WEATHER ROUNDUP FOR MINNESOTA
NATIONAL WEATHER SERVICE TWIN CITIES/CHANHASSEN MN
700 PM CDT THU JUN 22 2017


NOTE: "FAIR" INDICATES FEW OR NO CLOUDS BELOW 12,000 FEET WITH NO
SIGNIFICANT WEATHER AND/OR OBSTRUCTIONS TO VISIBILITY. N/A MEANS
CURRENT SKY AND/OR WEATHER CONDITIONS ARE NOT AVAILABLE.

MNZ060>063-068>070-230100-
   Twin Cities Metro

CITY           SKY/WX    TMP DP  RH WIND       PRES   REMARKS
TWIN CITIES    PTSUNNY   72  63  73 NW7       29.73F
6HR MIN TEMP:  66; 6HR MAX TEMP:  72; 6HR PCP:  0.09;

ST PAUL        CLOUDY    70  65  84 CALM      29.73F
CRYSTAL        CLOUDY    70  61  73 VRB5      29.73R
BLAINE         PTSUNNY   72  64  78 NW6       29.74S
LAKEVILLE      CLOUDY    66  66 100 W3        29.74S
EDEN PRAIRIE   CLOUDY    71  63  75 NW7       29.73F
6HR MIN TEMP:  67; 6HR MAX TEMP:  72; 6HR PCP:  0.06;

SOUTH ST PAUL  CLOUDY    69  64  83 W5        29.73S
LAKE ELMO      PTSUNNY   70  64  83 NW5       29.74F
$$
MNZ001>005-007-008-013>017-022>024-027-028-230100-
   Northwest Minnesota

CITY           SKY/WX    TMP DP  RH WIND       PRES   REMARKS
BEMIDJI        SUNNY     72  38  29 W17G28    29.69S
HALLOCK        CLOUDY    66  43  42 NW18G29   29.63R
ROSEAU           N/A     70  48  46 NW12G22   29.61S
WARROAD        SUNNY     68  46  45 W17G25    29.61R
THIEF RVR FALL PTSUNNY   69  40  34 W15       29.68S
CROOKSTON      CLOUDY    72  39  30 W16       29.68F
FOSSTON        MOSUNNY   70  41  35 W15G23    29.71S
DETROIT LAKES  SUNNY     72  37  28 W13G26    29.74S
MOORHEAD       SUNNY     75  36  23 W18G31    29.73S
PARK RAPIDS    SUNNY     75  40  28 NW14G24   29.71R
MAHNOMEN       FAIR      71  39  30 W22G30    29.71S
$$
MNZ006-009>011-018-025>026-230100-
   North Central Minnesota

CITY           SKY/WX    TMP DP  RH WIND       PRES   REMARKS
BAUDETTE       MOSUNNY   69  40  34 W14G25    29.60F
FLAG ISLAND    CLOUDY    68  43  40 W16G28    29.57R HAZE
INTL FALLS     MOSUNNY   72  41  32 W18G29    29.60F
6HR MIN TEMP:  68; 6HR MAX TEMP:  77; 6HR PCP: TRACE;

WASKISH        MOSUNNY   70  46  43 W18G24    29.65S
BIG FORK       SUNNY     72  46  40 W5        29.66S
LONGVILLE      PTSUNNY   72  48  43 W7        29.69R
GRAND RAPIDS   CLOUDY    73  49  42 VRB6      29.69S
CRANE LAKE     CLOUDY    70  37  30 CALM      29.63S
ORR            MOSUNNY   72  36  26 W9G18     29.61S
COOK           CLOUDY    72  50  46 SW8       29.65S
WALKER         MOCLDY    71  42  35 NW15G28   29.69R
$$
MNZ012-019>021-037-230100-
   Northeast Minnesota

CITY           SKY/WX    TMP DP  RH WIND       PRES   REMARKS
DULUTH         MOSUNNY   73  51  46 W16       29.67S
6HR MIN TEMP:  71; 6HR MAX TEMP:  77;

ELY            PTSUNNY   63  52  67 W3        29.65R
HIBBING        CLOUDY    67  49  52 W7        29.66F
EVELETH        MOSUNNY   72  36  26 SW7       29.68R
DULUTH HARBOR  SUNNY     79  52  38 SW18      29.65S
TWO HARBORS    SUNNY     79  54  41 W9        29.63S
SILVER BAY     MOSUNNY   75  46  35 SW5       29.63S
GRAND MARAIS     N/A     54  46  74 SW10      29.61F
G MARAIS ARPRT SUNNY     70  37  30 W9G20     29.65F
$$
MNZ029>031-032-039>041-046>048-054>057-064-230100-
   West Central Minnesota

CITY           SKY/WX    TMP DP  RH WIND       PRES   REMARKS
FERGUS FALLS   SUNNY     73  45  35 NW16G23   29.71R
WHEATON        MOSUNNY   75  45  33 NW12      29.76R
MORRIS         MOSUNNY   72  57  60 S10       29.74S
ALEXANDRIA     PTSUNNY   71  56  58 SW13      29.76S
ELBOW LAKE     CLOUDY    74  51  44 W13       29.75R
WADENA         MOSUNNY   72  52  49 W8        29.72S
GLENWOOD       SUNNY     72  57  60 SW13      29.77S
APPLETON       SUNNY     73  54  49 SW8       29.76F
BENSON         SUNNY     73  54  49 W8        29.78F
ORTONVILLE     MOSUNNY   73  54  49 S6        29.76S
MADISON        SUNNY     73  54  49 SW6       29.78S
WILLMAR        FAIR      72  52  49 NW5       29.78F
$$
MNZ033>034-036-042>043-049>051-058-059-230100-
   Central Minnesota

CITY           SKY/WX    TMP DP  RH WIND       PRES   REMARKS
ST CLOUD       SUNNY     73  50  44 W8        29.74F
6HR MIN TEMP:  61; 6HR MAX TEMP:  73; 6HR PCP: TRACE;

SAUK CENTRE    FAIR      71  56  60 SW9       29.76S
PAYNESVILLE    SUNNY     72  47  40 W7        29.77S
AITKIN         CLOUDY    73  50  43 W10       29.69R
PINE RIVER     CLOUDY    72  54  53 SW5       29.74S
BRAINERD       MOSUNNY   75  48  38 W13       29.71S
STAPLES        MOSUNNY   73  45  35 SW12      29.72S
LONG PRAIRIE   FAIR      70  55  60 S8        29.75S
LITTLE FALLS   SUNNY     72  54  53 S13       29.74S
LITCHFIELD     CLOUDY    72  54  53 NW5       29.76F
BUFFALO        CLOUDY    69  54  57 NW5       29.76S
MAPLE LAKE     MOSUNNY   71  58  62 W3        29.75F
HUTCHINSON     CLOUDY    69  58  67 NW5       29.77S
$$
MNZ037-044-045-052-053-230100-
   East Central Minnesota

CITY           SKY/WX    TMP DP  RH WIND       PRES   REMARKS
PRINCETON      SUNNY     75  52  43 SW5       29.74S
MORA           SUNNY     70  46  43 W8        29.74S
CAMBRIDGE      SUNNY     75  55  50 CALM      29.71F
RUSH CITY      SUNNY     72  50  46 W5        29.73F
MOOSE LAKE     SUNNY     73  50  43 SW9       29.67F
HINCKLEY       FAIR      72  52  49 SW10      29.72F
CLOQUET        MOSUNNY   73  43  33 W10       29.68S
MCGREGOR       CLOUDY    72  54  53 W7        29.70S
$$
MNZ071>073-080-081-089-090-097-098-230100-
   Southwest Minnesota

CITY           SKY/WX    TMP DP  RH WIND       PRES   REMARKS
MONTEVIDEO     SUNNY     75  64  69 CALM      29.78S
GRANITE FALLS  CLOUDY    73  55  52 NW6       29.80S
CANBY          SUNNY     73  46  38 CALM      29.80S
MARSHALL       CLOUDY    69  54  58 N9        29.79S
REDWOOD FALLS  PTSUNNY   68  56  65 N7        29.76S
OLIVIA         PTSUNNY   70  55  60 NW8       29.77S
PIPESTONE      CLOUDY    70  48  46 NE8       29.80R
WINDOM         CLOUDY    70  61  73 N9        29.77S
WORTHINGTON    CLOUDY    69  61  75 N13       29.78S
JACKSON        CLOUDY    66  61  82 N8        29.76S
TRACY          CLOUDY    68  56  66 N8        29.80R
SLAYTON        SUNNY     68  53  58 N10       29.80S
$$
MNZ065>067-074>077-082>085-091>093-230100-
   South Central Minnesota

CITY           SKY/WX    TMP DP  RH WIND       PRES   REMARKS
MANKATO        CLOUDY    68  61  78 N13       29.75R
NEW ULM        CLOUDY    70  57  64 N7        29.75S
ST JAMES       CLOUDY    68  61  77 NW9       29.76S
FAIRMONT       CLOUDY    68  63  84 N10       29.74R
GLENCOE        CLOUDY    69  61  74 NW7       29.75S
FARIBAULT      CLOUDY    66  64  94 N3        29.74S
OWATONNA       CLOUDY    70  66  88 N10       29.73R
WASECA         CLOUDY    64  61  88 N10G18    29.75R
ALBERT LEA     CLOUDY    70  64  83 N12       29.72S
$$
MNZ078>079-086>088-094>096-230100-
   Southeast Minnesota

CITY           SKY/WX    TMP DP  RH WIND       PRES   REMARKS
ROCHESTER      CLOUDY    70  68  93 N8        29.73R
6HR MIN TEMP:  68; 6HR MAX TEMP:  72; 6HR PCP:  0.05;

RED WING       CLOUDY    70  64  83 N6        29.72S
STANTON        CLOUDY    69  64  86 N5        29.73R
DODGE CENTER   CLOUDY    66  64  94 N6        29.73R
WINONA         CLOUDY    70  68  94 N6        29.70F
AUSTIN         CLOUDY    72  66  83 CALM      29.71S
PRESTON        CLOUDY    70  66  86 CALM      29.72R
$$
ABBREVIATIONS USED IN REMARKS
   TC - TEMPERATURES IN CELSIUS
  WCI - WIND CHILL INDEX
   HX - HEAT INDEX
  VSB - VISIBILITY
$$




USA.gov is the U.S. government's official web portal to all federal, state and local government web resources and services.